| time (UTC) | temp C | wind direction | speed KPH | gust KPH | rain 1hr cm | rain 24hr cm | rain mn cm | humidity % | barometer mb |
| 20260831131536 | 23 | 161 | 0.0 | 0.0 | 0.00 | 0.00 | 0.00 | 86 | 1006.6 |
| 20260831130034 | 22 | 196 | 0.0 | 0.0 | 0.00 | 0.00 | 0.00 | 86 | 1006.6 |
| 20260831124526 | 22 | 217 | 0.0 | 0.0 | 0.00 | 0.00 | 0.00 | 89 | 1006.5 |
| 20260831123020 | 21 | 217 | 0.0 | 0.0 | 0.00 | 0.00 | 0.00 | 90 | 1006.3 |
| 20260831121520 | 20 | 217 | 0.0 | 0.0 | 0.00 | 0.00 | 0.00 | 91 | 1006.1 |
| 20260831120025 | 20 | 250 | 0.0 | 0.0 | 0.00 | 0.00 | 0.00 | 90 | 1006.0 |
| 20260831114519 | 20 | 250 | 0.0 | 0.0 | 0.00 | 0.00 | 0.00 | 90 | 1005.7 |
| 20260831113018 | 20 | 250 | 0.0 | 0.0 | 0.00 | 0.00 | 0.00 | 90 | 1005.7 |
| 20260831111516 | 21 | 259 | 0.0 | 0.0 | 0.00 | 0.00 | 0.00 | 89 | 1005.8 |
| 20260831110012 | 21 | 150 | 0.0 | 0.0 | 0.00 | 0.00 | 0.00 | 89 | 1005.5 |
| 20260831104512 | 21 | 214 | 0.0 | 0.0 | 0.00 | 0.00 | 0.00 | 90 | 1005.7 |
| 20260831103011 | 21 | 122 | 0.0 | 0.0 | 0.00 | 0.00 | 0.00 | 89 | 1005.6 |
| 20260831101511 | 21 | 186 | 0.0 | 6.4 | 0.00 | 0.00 | 0.00 | 89 | 1005.7 |
| 20260831100008 | 21 | 223 | 0.0 | 0.0 | 0.00 | 0.00 | 0.00 | 90 | 1005.7 |
| 20260831094507 | 21 | 86 | 0.0 | 0.0 | 0.00 | 0.00 | 0.00 | 88 | 1005.6 |
| 20260831093007 | 21 | 278 | 0.0 | 0.0 | 0.00 | 0.00 | 0.00 | 88 | 1005.7 |
| 20260831091505 | 21 | 241 | 0.0 | 0.0 | 0.00 | 0.00 | 0.00 | 89 | 1005.7 |
| 20260831090004 | 21 | 146 | 0.0 | 0.0 | 0.00 | 0.00 | 0.00 | 89 | 1005.8 |
| 20260831084508 | 21 | 200 | 0.0 | 0.0 | 0.00 | 0.00 | 0.00 | 88 | 1005.8 |
| 20260831083003 | 21 | 185 | 0.0 | 0.0 | 0.00 | 0.00 | 0.00 | 88 | 1005.7 |
| 20260831081533 | 21 | 210 | 0.0 | 0.0 | 0.00 | 0.00 | 0.00 | 87 | 1005.6 |
| 20260831080039 | 21 | 188 | 0.0 | 0.0 | 0.00 | 0.00 | 0.00 | 86 | 1005.7 |
| 20260831074502 | 21 | 161 | 0.0 | 0.0 | 0.00 | 0.00 | 0.00 | 87 | 1005.7 |
| 20260831073002 | 21 | 171 | 0.0 | 0.0 | 0.00 | 0.00 | 0.00 | 87 | 1005.9 |
| 20260831071534 | 21 | 171 | 0.0 | 0.0 | 0.00 | 0.00 | 0.00 | 86 | 1006.0 |
| 20260831070027 | 21 | 166 | 0.0 | 0.0 | 0.00 | 0.00 | 0.00 | 86 | 1006.2 |
| 20260831064525 | 21 | 206 | 0.0 | 0.0 | 0.00 | 0.00 | 0.00 | 86 | 1006.3 |
| 20260831063025 | 21 | 234 | 0.0 | 0.0 | 0.00 | 0.00 | 0.00 | 86 | 1006.4 |
| 20260831061529 | 21 | 232 | 0.0 | 0.0 | 0.00 | 0.00 | 0.00 | 85 | 1006.6 |
| 20260831060022 | 21 | 180 | 0.0 | 0.0 | 0.00 | 0.00 | 0.00 | 85 | 1006.7 |
| 20260831054519 | 21 | 234 | 0.0 | 0.0 | 0.00 | 0.00 | 0.00 | 85 | 1006.9 |
| 20260831053027 | 21 | 264 | 0.0 | 0.0 | 0.00 | 0.00 | 0.00 | 84 | 1007.0 |
| 20260831051517 | 21 | 175 | 0.0 | 0.0 | 0.00 | 0.00 | 0.00 | 84 | 1007.0 |
| 20260831050025 | 22 | 219 | 0.0 | 0.0 | 0.00 | 0.00 | 0.00 | 84 | 1007.1 |
| 20260831044511 | 22 | 169 | 0.0 | 0.0 | 0.00 | 0.00 | 0.00 | 83 | 1007.3 |
| 20260831043009 | 22 | 188 | 0.0 | 0.0 | 0.00 | 0.00 | 0.00 | 82 | 1007.3 |
| 20260831041508 | 22 | 200 | 0.0 | 0.0 | 0.00 | 0.00 | 0.00 | 82 | 1007.2 |
| 20260831040005 | 22 | 193 | 0.0 | 4.8 | 0.00 | 0.00 | 0.00 | 81 | 1007.5 |
| 20260831034600 | 22 | 189 | 0.0 | 1.6 | 0.00 | 0.00 | 0.00 | 81 | 1007.1 |
| 20260831033058 | 22 | 229 | 0.0 | 11.3 | 0.00 | 0.00 | 0.00 | 81 | 1007.3 |
| 20260831031556 | 22 | 134 | 0.0 | 1.6 | 0.00 | 0.00 | 0.00 | 81 | 1007.3 |
| 20260831030056 | 22 | 202 | 0.0 | 6.4 | 0.00 | 0.00 | 0.00 | 80 | 1007.5 |
| 20260831024550 | 23 | 168 | 0.0 | 12.9 | 0.00 | 0.00 | 0.00 | 79 | 1007.8 |
| 20260831023046 | 23 | 218 | 4.8 | 17.7 | 0.00 | 0.00 | 0.00 | 78 | 1007.8 |
| 20260831021544 | 23 | 194 | 0.0 | 12.9 | 0.00 | 0.00 | 0.00 | 77 | 1007.9 |
| 20260831020047 | 23 | 201 | 3.2 | 14.5 | 0.00 | 0.00 | 0.00 | 76 | 1007.8 |
| 20260831014537 | 24 | 164 | 3.2 | 12.9 | 0.00 | 0.00 | 0.00 | 75 | 1007.7 |
| 20260831013035 | 24 | 254 | 1.6 | 11.3 | 0.00 | 0.00 | 0.00 | 74 | 1007.4 |
| 20260831011538 | 25 | 196 | 0.0 | 16.1 | 0.00 | 0.00 | 0.00 | 72 | 1007.1 |
| 20260831010030 | 25 | 230 | 3.2 | 16.1 | 0.00 | 0.00 | 0.00 | 70 | 1007.0 |
| 20260831004527 | 25 | 152 | 3.2 | 11.3 | 0.00 | 0.00 | 0.00 | 69 | 1007.1 |
| 20260831003035 | 26 | 175 | 4.8 | 14.5 | 0.00 | 0.00 | 0.00 | 67 | 1007.0 |
| 20260831001525 | 26 | 229 | 6.4 | 27.4 | 0.00 | 0.00 | 0.00 | 65 | 1007.0 |
| 20260831000026 | 27 | 251 | 0.0 | 12.9 | 0.00 | 0.00 | 0.00 | 67 | 1007.0 |
| 20260830234535 | 27 | 192 | 1.6 | 11.3 | 0.00 | 0.00 | 0.00 | 67 | 1006.9 |
| 20260830233021 | 27 | 192 | 0.0 | 4.8 | 0.00 | 0.00 | 0.00 | 65 | 1007.0 |
| 20260830231521 | 28 | 186 | 3.2 | 16.1 | 0.00 | 0.00 | 0.00 | 61 | 1006.9 |
| 20260830230022 | 30 | 172 | 3.2 | 19.3 | 0.00 | 0.00 | 0.00 | 60 | 1006.4 |
| 20260830224517 | 29 | 252 | 1.6 | 12.9 | 0.00 | 0.00 | 0.00 | 62 | 1006.3 |
| 20260830223016 | 28 | 160 | 6.4 | 16.1 | 0.00 | 0.00 | 0.00 | 64 | 1006.2 |
| 20260830221514 | 30 | 179 | 0.0 | 20.9 | 0.00 | 0.00 | 0.00 | 60 | 1006.1 |
| 20260830220015 | 30 | 213 | 6.4 | 22.5 | 0.00 | 0.00 | 0.00 | 58 | 1006.1 |
| 20260830214512 | 32 | 168 | 3.2 | 22.5 | 0.00 | 0.00 | 0.00 | 57 | 1005.8 |
| 20260830213015 | 31 | 175 | 1.6 | 19.3 | 0.00 | 0.00 | 0.00 | 58 | 1006.0 |
| 20260830211509 | 31 | 155 | 8.0 | 17.7 | 0.00 | 0.00 | 0.00 | 59 | 1005.9 |
| 20260830211507 | 31 | 223 | 8.0 | 17.7 | 0.00 | 0.00 | 0.00 | 59 | 1005.9 |
| 20260830210003 | 31 | 202 | 1.6 | 22.5 | 0.00 | 0.00 | 0.00 | 58 | 1006.0 |
| 20260830204604 | 32 | 184 | 6.4 | 16.1 | 0.00 | 0.00 | 0.00 | 58 | 1006.3 |
| 20260830203056 | 31 | 186 | 0.0 | 22.5 | 0.00 | 0.00 | 0.00 | 60 | 1006.3 |
| 20260830201554 | 30 | 160 | 6.4 | 20.9 | 0.00 | 0.00 | 0.00 | 64 | 1006.7 |
| 20260830200050 | 30 | 202 | 8.0 | 24.1 | 0.00 | 0.00 | 0.00 | 62 | 1006.5 |
| 20260830194547 | 31 | 115 | 4.8 | 17.7 | 0.00 | 0.00 | 0.00 | 60 | 1006.5 |
| 20260830193043 | 30 | 153 | 4.8 | 20.9 | 0.00 | 0.00 | 0.00 | 61 | 1006.8 |
| 20260830191540 | 30 | 175 | 6.4 | 16.1 | 0.00 | 0.00 | 0.00 | 62 | 1006.6 |
| 20260830190044 | 29 | 134 | 4.8 | 16.1 | 0.00 | 0.00 | 0.00 | 65 | 1006.6 |
| 20260830184536 | 28 | 126 | 1.6 | 19.3 | 0.00 | 0.00 | 0.00 | 67 | 1006.6 |
| 20260830183029 | 28 | 113 | 9.7 | 20.9 | 0.00 | 0.00 | 0.00 | 67 | 1006.7 |
| 20260830181525 | 29 | 107 | 14.5 | 24.1 | 0.00 | 0.00 | 0.00 | 65 | 1007.1 |
| 20260830180016 | 27 | 105 | 8.0 | 16.1 | 0.00 | 0.00 | 0.00 | 72 | 1007.7 |
| 20260830174517 | 26 | 94 | 6.4 | 17.7 | 0.00 | 0.00 | 0.00 | 72 | 1007.8 |
| 20260830173038 | 26 | 116 | 6.4 | 12.9 | 0.00 | 0.00 | 0.00 | 74 | 1007.9 |
| 20260830171536 | 25 | 126 | 0.0 | 9.7 | 0.00 | 0.00 | 0.00 | 76 | 1008.1 |
| 20260830170031 | 25 | 160 | 3.2 | 9.7 | 0.00 | 0.00 | 0.00 | 76 | 1008.0 |
| 20260830164525 | 25 | 171 | 0.0 | 9.7 | 0.00 | 0.00 | 0.00 | 73 | 1007.7 |
| 20260830163024 | 25 | 148 | 0.0 | 6.4 | 0.00 | 0.00 | 0.00 | 73 | 1007.9 |
| 20260830161520 | 26 | 159 | 1.6 | 8.0 | 0.00 | 0.00 | 0.00 | 72 | 1007.6 |
| 20260830160018 | 26 | 190 | 3.2 | 14.5 | 0.00 | 0.00 | 0.00 | 73 | 1007.3 |
| 20260830154515 | 25 | 127 | 3.2 | 14.5 | 0.00 | 0.00 | 0.00 | 76 | 1007.0 |
| 20260830153013 | 26 | 113 | 6.4 | 19.3 | 0.00 | 0.00 | 0.00 | 72 | 1007.1 |
| 20260830151513 | 25 | 122 | 1.6 | 12.9 | 0.00 | 0.00 | 0.00 | 74 | 1007.1 |
| 20260830150042 | 23 | 179 | 0.0 | 11.3 | 0.00 | 0.00 | 0.00 | 81 | 1007.0 |
| 20260830144544 | 22 | 115 | 0.0 | 11.3 | 0.00 | 0.00 | 0.00 | 83 | 1007.0 |
| 20260830143040 | 22 | 116 | 0.0 | 12.9 | 0.00 | 0.00 | 0.00 | 83 | 1007.1 |
| 20260830141542 | 23 | 175 | 1.6 | 11.3 | 0.00 | 0.00 | 0.00 | 80 | 1007.3 |
| 20260830140038 | 23 | 173 | 0.0 | 11.3 | 0.00 | 0.03 | 0.00 | 82 | 1007.4 |
| 20260830134542 | 22 | 178 | 0.0 | 12.9 | 0.00 | 0.03 | 0.00 | 85 | 1007.3 |
| 20260830133037 | 22 | 118 | 1.6 | 11.3 | 0.00 | 0.03 | 0.00 | 86 | 1007.1 |